JIELONG 3 DEB, 62575

Orbit data source: Space-Track

JIELONG 3 DEB, 62575 is space debris in LEO originally from a launch on Mon, 13 Jan 2025 UTC launched from the Yellow Sea Launch Area, China (YSLA). Debris objects in space refer to the collection of defunct objects orbiting the Earth. Examples of debris include non-operational satellites, rocket bodies, and fragments generated from explosions, collisions, or faulty payload assembly.

Loading next visibility...
Identifier
62575, 2025-007A
Orbit
LEO
Country
Flag of CNCN / PRC
Related business
Manufacturer
Changzheng H.
Mission
Spacecraft
Bus & Motor
Unknown
Mass
~100 kg wet, ~100 kg dry
Launch date (UTC)
2025-01-13 (1 year ago)
Launch vehicle
Unknown
Launch site
Yellow Sea Launch Area, China (YSLA)
Object type
Payload
Rocket body
Debris
Shape & HBR
Cyl, 0.5 m
Radar Cross Section
2.062 m², Medium (>0.1 m² and < 1m²)

Expand to show TLE details & history
Last TLE update: 12 hours ago

TLE from 12 hours ago
0 JIELONG 3 DEB
1 62575U 25007A   26034.26770831  .00002268  00000-0  35542-3 0  9998
2 62575  54.9851 352.3397 0015103  74.1438 286.1226 14.76165047 56995
Epoch: 2026-02-03T06:25Z
TLE epoch observation values (Epoch: 2026-02-03T06:25:29.997Z)
Latitude
-0.00001°
Longitude
122.51362°
Altitude
639.594 km
Speed
7.541 km/s
True Right ascension
23h 29m 21s
True Declination
0° 00' 00"
Sunlit
Object was in daylight at epoch
Visualization orbit readout
Latitude
Unknown
Longitude
Unknown
Altitude
Unknown
Speed
Unknown
Apparent Right ascension
Unknown
Apparent Declination
Unknown
Sunlit
N/A
Visualization observer readout
Local Sidereal Time
20:14:51
Azimuth
Unknown
Elevation
Unknown
Doppler factor
Unknown
Orbital elements
Apogee altitude
652.023 km
Perigee altitude
630.82 km
Semi-major axis
7,019.558 km
Eccentricity
0.00151
Inclination
54.9851°
RAAN
352.3397°
Arg. of periapsis
74.1438°
True anomaly
285.95625°
Mean anomaly
286.1226°
Eccentric anomaly
286.03943°
Mean motion
3.69044 °/min
Orbital period
97.55 mins
BSTAR
0.00035542
Loading maneuver chart data...
Computing Atmospheric mass density...
Loading historical data...
Loading historical data...
Loading historical data...
Loading historical data...
Loading historical data...
Loading historical data...
Loading historical data...

Documentation

Showing up to 5 results
|